Location: ???
(35.5616°N, 139.7977°E)
Time: 03:20:35
(UTC+00:00)

OAO 1 - Pass Details

Date: 17 November 2025
Orbit: 771 x 781 km, 35.0° (Epoch: 09 December)

Event Time Altitude Azimuth Distance (km) Brightness Sun altitude
Exits shadow 19:56:06 28° 268° (W) 1,425 5.3 -16.9°
Maximum altitude 19:59:06 87° 180° (S) 773 4.5 -16.3°
Drops below altitude 10° 20:04:33 10° 93° (E) 2,305 8.3 -15.2°
Sets 20:07:02 0° 93° (E) 3,233 9.5 -14.7°
